Wetterdaten: Samstag, 06.09.2014
Datum Zeit Temp. A. Feuchte A. Luftdruck Regen Wind Richtung Richtung Sonnenschein ET UV Solar Taupunkt Windchill Windben Empfang
06.09.2014 00:00 15,8 C 95 % 1012,1 hPa 0,0 l/m 0,0 km/h (0 Bft) O 94 0 min 0,000 mm 0,0 UV-I 0 W/m 15,0 C 15,8 C 0,0 km/h (0 Bft) 0,00 %
06.09.2014 00:15 15,6 C 94 % 1012,2 hPa 0,0 l/m 0,0 km/h (0 Bft) O-SO 123 0 min 0,000 mm 0,0 UV-I 0 W/m 14,6 C 15,6 C 0,0 km/h (0 Bft) 0,00 %
06.09.2014 00:30 15,5 C 95 % 1012,4 hPa 0,0 l/m 0,0 km/h (0 Bft) SO 143 0 min 0,000 mm 0,0 UV-I 0 W/m 14,7 C 15,5 C 0,0 km/h (0 Bft) 0,00 %
06.09.2014 00:45 15,2 C 96 % 1012,3 hPa 0,0 l/m 0,0 km/h (0 Bft) O-SO 108 0 min 0,000 mm 0,0 UV-I 0 W/m 14,6 C 15,2 C 0,0 km/h (0 Bft) 0,00 %
06.09.2014 01:00 14,9 C 96 % 1012,4 hPa 0,0 l/m 0,0 km/h (0 Bft) O-SO 118 0 min 0,000 mm 0,0 UV-I 0 W/m 14,3 C 14,9 C 0,0 km/h (0 Bft) 0,00 %
06.09.2014 01:15 14,7 C 96 % 1012,3 hPa 0,0 l/m 0,0 km/h (0 Bft) SO 130 0 min 0,000 mm 0,0 UV-I 0 W/m 14,1 C 14,7 C 0,0 km/h (0 Bft) 0,00 %
06.09.2014 01:30 14,7 C 96 % 1012,3 hPa 0,0 l/m 0,0 km/h (0 Bft) SO 132 0 min 0,000 mm 0,0 UV-I 0 W/m 14,1 C 14,7 C 0,0 km/h (0 Bft) 0,00 %
06.09.2014 01:45 14,5 C 96 % 1012,3 hPa 0,0 l/m 0,0 km/h (0 Bft) SO 130 0 min 0,000 mm 0,0 UV-I 0 W/m 13,9 C 14,5 C 0,0 km/h (0 Bft) 0,00 %
06.09.2014 02:00 14,6 C 97 % 1012,2 hPa 0,0 l/m 0,0 km/h (0 Bft) S 181 0 min 0,000 mm 0,0 UV-I 0 W/m 14,1 C 14,6 C 0,0 km/h (0 Bft) 0,00 %
06.09.2014 02:15 14,7 C 97 % 1012,2 hPa 0,0 l/m 0,0 km/h (0 Bft) S 172 0 min 0,000 mm 0,0 UV-I 0 W/m 14,2 C 14,7 C 0,0 km/h (0 Bft) 0,00 %
06.09.2014 02:30 14,9 C 97 % 1011,8 hPa 0,0 l/m 0,0 km/h (0 Bft) SO 139 0 min 0,000 mm 0,0 UV-I 0 W/m 14,4 C 14,9 C 0,0 km/h (0 Bft) 0,00 %
06.09.2014 02:45 14,8 C 96 % 1011,8 hPa 0,0 l/m 0,0 km/h (0 Bft) O-SO 122 0 min 0,000 mm 0,0 UV-I 0 W/m 14,2 C 14,8 C 0,0 km/h (0 Bft) 0,00 %
06.09.2014 03:00 14,6 C 96 % 1011,9 hPa 0,0 l/m 0,0 km/h (0 Bft) O-SO 104 0 min 0,000 mm 0,0 UV-I 0 W/m 14,0 C 14,6 C 0,0 km/h (0 Bft) 0,00 %
06.09.2014 03:15 14,5 C 97 % 1012,1 hPa 0,0 l/m 0,0 km/h (0 Bft) NO 53 0 min 0,000 mm 0,0 UV-I 0 W/m 14,0 C 14,5 C 0,0 km/h (0 Bft) 0,00 %
06.09.2014 03:30 14,2 C 97 % 1012,0 hPa 0,0 l/m 0,0 km/h (0 Bft) O-NO 63 0 min 0,000 mm 0,0 UV-I 0 W/m 13,7 C 14,2 C 0,0 km/h (0 Bft) 0,00 %
06.09.2014 03:45 14,2 C 96 % 1012,0 hPa 0,0 l/m 0,0 km/h (0 Bft) NO 39 0 min 0,000 mm 0,0 UV-I 0 W/m 13,6 C 14,2 C 0,0 km/h (0 Bft) 0,00 %
06.09.2014 04:00 13,9 C 96 % 1012,1 hPa 0,0 l/m 0,0 km/h (0 Bft) S-SO 156 0 min 0,000 mm 0,0 UV-I 0 W/m 13,3 C 13,9 C 0,0 km/h (0 Bft) 0,00 %
06.09.2014 04:15 13,5 C 97 % 1012,1 hPa 0,0 l/m 0,0 km/h (0 Bft) O-SO 122 0 min 0,000 mm 0,0 UV-I 0 W/m 13,0 C 13,5 C 0,0 km/h (0 Bft) 0,00 %
06.09.2014 04:30 13,2 C 97 % 1012,2 hPa 0,0 l/m 0,0 km/h (0 Bft) O-SO 121 0 min 0,000 mm 0,0 UV-I 0 W/m 12,7 C 13,2 C 0,0 km/h (0 Bft) 0,00 %
06.09.2014 04:45 13,3 C 98 % 1012,2 hPa 0,0 l/m 0,0 km/h (0 Bft) O-SO 114 0 min 0,000 mm 0,0 UV-I 0 W/m 13,0 C 13,3 C 0,0 km/h (0 Bft) 0,00 %
06.09.2014 05:00 12,6 C 98 % 1012,3 hPa 0,0 l/m 0,0 km/h (0 Bft) O 94 0 min 0,000 mm 0,0 UV-I 0 W/m 12,3 C 12,6 C 0,0 km/h (0 Bft) 0,00 %
06.09.2014 05:15 12,7 C 98 % 1012,4 hPa 0,0 l/m 0,0 km/h (0 Bft) SO 128 0 min 0,000 mm 0,0 UV-I 0 W/m 12,4 C 12,7 C 0,0 km/h (0 Bft) 0,00 %
06.09.2014 05:30 13,1 C 98 % 1012,2 hPa 0,0 l/m 0,0 km/h (0 Bft) SO 132 0 min 0,000 mm 0,0 UV-I 0 W/m 12,8 C 13,1 C 0,0 km/h (0 Bft) 0,00 %
06.09.2014 05:45 12,7 C 97 % 1012,3 hPa 0,0 l/m 0,0 km/h (0 Bft) SO 133 0 min 0,000 mm 0,0 UV-I 0 W/m 12,2 C 12,7 C 0,0 km/h (0 Bft) 0,00 %
06.09.2014 06:00 12,4 C 97 % 1012,2 hPa 0,0 l/m 0,0 km/h (0 Bft) O 92 0 min 0,000 mm 0,0 UV-I 0 W/m 11,9 C 12,4 C 0,0 km/h (0 Bft) 0,00 %
06.09.2014 06:15 12,4 C 98 % 1012,3 hPa 0,0 l/m 0,0 km/h (0 Bft) O 80 0 min 0,000 mm 1,0 UV-I 0 W/m 12,1 C 12,4 C 0,0 km/h (0 Bft) 0,00 %
06.09.2014 06:30 12,8 C 99 % 1012,3 hPa 0,0 l/m 0,0 km/h (0 Bft) NO 55 0 min 0,000 mm 1,0 UV-I 0 W/m 12,6 C 12,8 C 0,0 km/h (0 Bft) 0,00 %
06.09.2014 06:45 13,3 C 99 % 1012,4 hPa 0,0 l/m 0,0 km/h (0 Bft) NO 56 0 min 0,000 mm 1,0 UV-I 1 W/m 13,1 C 13,3 C 0,0 km/h (0 Bft) 0,00 %
06.09.2014 07:00 12,7 C 99 % 1012,4 hPa 0,0 l/m 0,0 km/h (0 Bft) O 85 0 min 0,000 mm 1,0 UV-I 6 W/m 12,5 C 12,7 C 0,0 km/h (0 Bft) 0,00 %
06.09.2014 07:15 12,9 C 99 % 1012,4 hPa 0,0 l/m 0,0 km/h (0 Bft) SW 233 0 min 0,000 mm 1,0 UV-I 19 W/m 12,7 C 12,9 C 0,0 km/h (0 Bft) 0,00 %
06.09.2014 07:30 13,5 C 98 % 1012,3 hPa 0,0 l/m 0,0 km/h (0 Bft) SW 233 0 min 0,000 mm 2,0 UV-I 32 W/m 13,2 C 13,5 C 0,0 km/h (0 Bft) 0,00 %
06.09.2014 07:45 14,1 C 98 % 1012,2 hPa 0,0 l/m 0,0 km/h (0 Bft) N-NO 33 0 min 0,000 mm 2,0 UV-I 86 W/m 13,8 C 14,1 C 0,0 km/h (0 Bft) 0,00 %
06.09.2014 08:00 14,1 C 96 % 1012,5 hPa 0,0 l/m 0,0 km/h (0 Bft) NO 35 0 min 0,000 mm 2,0 UV-I 106 W/m 13,5 C 14,1 C 4,0 km/h (1 Bft) 0,00 %
06.09.2014 08:15 15,2 C 94 % 1012,2 hPa 0,0 l/m 0,0 km/h (0 Bft) NO 34 0 min 0,000 mm 1,0 UV-I 108 W/m 14,2 C 15,2 C 4,0 km/h (1 Bft) 0,00 %
06.09.2014 08:30 15,6 C 93 % 1012,3 hPa 0,0 l/m 0,0 km/h (0 Bft) N 355 15 min 0,000 mm 2,0 UV-I 184 W/m 14,5 C 15,6 C 0,0 km/h (0 Bft) 0,00 %
06.09.2014 08:45 15,9 C 91 % 1012,3 hPa 0,0 l/m 1,4 km/h (1 Bft) N-NO 30 0 min 0,000 mm 1,0 UV-I 150 W/m 14,4 C 15,9 C 0,0 km/h (0 Bft) 0,00 %
06.09.2014 09:00 15,7 C 92 % 1012,2 hPa 0,0 l/m 0,7 km/h (0 Bft) N-NO 29 0 min 0,000 mm 2,0 UV-I 133 W/m 14,4 C 15,7 C 0,0 km/h (0 Bft) 0,00 %
06.09.2014 09:15 15,5 C 92 % 1012,7 hPa 0,0 l/m 0,0 km/h (0 Bft) NO 36 0 min 0,000 mm 2,0 UV-I 167 W/m 14,2 C 15,5 C 0,0 km/h (0 Bft) 0,00 %
06.09.2014 09:30 15,6 C 92 % 1012,4 hPa 0,0 l/m 0,0 km/h (0 Bft) N-NW 338 0 min 0,000 mm 2,0 UV-I 83 W/m 14,3 C 15,6 C 0,0 km/h (0 Bft) 0,00 %
06.09.2014 09:45 15,4 C 92 % 1012,5 hPa 0,0 l/m 0,0 km/h (0 Bft) NO 47 0 min 0,000 mm 3,0 UV-I 108 W/m 14,1 C 15,4 C 0,0 km/h (0 Bft) 0,00 %
06.09.2014 10:00 16,0 C 90 % 1012,4 hPa 0,0 l/m 0,0 km/h (0 Bft) NO 51 0 min 0,000 mm 4,0 UV-I 110 W/m 14,4 C 16,0 C 0,0 km/h (0 Bft) 0,00 %
06.09.2014 10:15 16,8 C 87 % 1012,4 hPa 0,0 l/m 0,0 km/h (0 Bft) O-NO 78 0 min 0,000 mm 4,0 UV-I 189 W/m 14,6 C 16,8 C 0,0 km/h (0 Bft) 0,00 %
06.09.2014 10:30 17,6 C 84 % 1012,2 hPa 0,0 l/m 0,0 km/h (0 Bft) N 357 0 min 0,000 mm 3,0 UV-I 205 W/m 14,9 C 17,6 C 0,0 km/h (0 Bft) 0,00 %
06.09.2014 10:45 17,7 C 82 % 1011,9 hPa 0,0 l/m 0,0 km/h (0 Bft) O-NO 61 0 min 0,000 mm 3,0 UV-I 262 W/m 14,6 C 17,7 C 4,0 km/h (1 Bft) 0,00 %
06.09.2014 11:00 17,7 C 81 % 1011,9 hPa 0,0 l/m 0,0 km/h (0 Bft) NO 48 0 min 0,000 mm 3,0 UV-I 315 W/m 14,4 C 17,7 C 4,0 km/h (1 Bft) 0,00 %
06.09.2014 11:15 17,5 C 84 % 1011,8 hPa 0,0 l/m 0,0 km/h (0 Bft) O-NO 76 0 min 0,000 mm 4,0 UV-I 308 W/m 14,8 C 17,5 C 0,0 km/h (0 Bft) 0,00 %
06.09.2014 11:30 18,5 C 77 % 1011,6 hPa 0,0 l/m 0,4 km/h (0 Bft) W-SW 256 0 min 0,000 mm 7,0 UV-I 326 W/m 14,4 C 18,5 C 0,0 km/h (0 Bft) 0,00 %
06.09.2014 11:45 17,9 C 81 % 1011,9 hPa 0,0 l/m 1,4 km/h (1 Bft) NO 41 0 min 0,000 mm 5,0 UV-I 316 W/m 14,6 C 17,9 C 0,0 km/h (0 Bft) 0,00 %
06.09.2014 12:00 17,8 C 83 % 1011,6 hPa 0,0 l/m 0,0 km/h (0 Bft) N-NW 348 0 min 0,000 mm 6,0 UV-I 290 W/m 14,9 C 17,8 C 0,0 km/h (0 Bft) 0,00 %
06.09.2014 12:15 18,9 C 74 % 1010,9 hPa 0,0 l/m 0,0 km/h (0 Bft) NO 50 15 min 0,000 mm 6,0 UV-I 439 W/m 14,2 C 18,9 C 7,9 km/h (2 Bft) 0,00 %
06.09.2014 12:30 20,5 C 69 % 1010,9 hPa 0,0 l/m 0,0 km/h (0 Bft) NO 49 15 min 0,000 mm 4,0 UV-I 418 W/m 14,6 C 20,5 C 11,9 km/h (2 Bft) 0,00 %
06.09.2014 12:45 20,6 C 73 % 1010,3 hPa 0,0 l/m 0,0 km/h (0 Bft) O-NO 63 15 min 0,000 mm 4,0 UV-I 470 W/m 15,6 C 20,6 C 15,8 km/h (3 Bft) 0,00 %
06.09.2014 13:00 20,5 C 69 % 1010,3 hPa 0,0 l/m 3,2 km/h (1 Bft) NO 39 15 min 0,000 mm 6,0 UV-I 734 W/m 14,6 C 20,5 C 7,9 km/h (2 Bft) 0,00 %
06.09.2014 13:15 19,9 C 72 % 1010,8 hPa 0,0 l/m 7,9 km/h (2 Bft) O-NO 74 0 min 0,000 mm 7,0 UV-I 388 W/m 14,7 C 19,3 C 4,0 km/h (1 Bft) 0,00 %
06.09.2014 13:30 20,0 C 72 % 1010,4 hPa 0,0 l/m 10,8 km/h (2 Bft) NO 35 0 min 0,000 mm 6,0 UV-I 394 W/m 14,8 C 18,4 C 7,9 km/h (2 Bft) 0,00 %
06.09.2014 13:45 19,9 C 71 % 1010,1 hPa 0,0 l/m 4,7 km/h (1 Bft) N-NO 28 0 min 0,000 mm 6,0 UV-I 364 W/m 14,5 C 19,9 C 11,9 km/h (2 Bft) 0,00 %
06.09.2014 14:00 21,4 C 64 % 1009,5 hPa 0,0 l/m 1,8 km/h (1 Bft) O-NO 68 15 min 0,000 mm 5,0 UV-I 762 W/m 14,3 C 21,4 C 7,9 km/h (2 Bft) 0,00 %
06.09.2014 14:15 21,1 C 68 % 1009,3 hPa 0,0 l/m 7,2 km/h (2 Bft) O-NO 59 15 min 0,000 mm 4,0 UV-I 857 W/m 15,0 C 20,8 C 11,9 km/h (2 Bft) 0,00 %
06.09.2014 14:30 22,0 C 64 % 1009,1 hPa 0,0 l/m 9,0 km/h (2 Bft) W-SW 256 15 min 0,000 mm 4,0 UV-I 809 W/m 14,9 C 21,1 C 0,0 km/h (0 Bft) 0,00 %
06.09.2014 14:45 21,2 C 69 % 1009,2 hPa 0,0 l/m 6,8 km/h (2 Bft) O-NO 63 15 min 0,000 mm 2,0 UV-I 799 W/m 15,3 C 21,1 C 11,9 km/h (2 Bft) 0,00 %
06.09.2014 15:00 21,5 C 66 % 1008,8 hPa 0,0 l/m 10,8 km/h (2 Bft) NO 45 15 min 0,000 mm 1,0 UV-I 767 W/m 14,9 C 20,1 C 7,9 km/h (2 Bft) 0,00 %
06.09.2014 15:15 22,4 C 61 % 1008,6 hPa 0,0 l/m 0,0 km/h (0 Bft) NO 44 15 min 0,000 mm 2,0 UV-I 805 W/m 14,5 C 22,4 C 15,8 km/h (3 Bft) 0,00 %
06.09.2014 15:30 23,4 C 67 % 1008,5 hPa 0,0 l/m 10,8 km/h (2 Bft) N 354 15 min 0,000 mm 2,0 UV-I 939 W/m 16,9 C 22,2 C 11,9 km/h (2 Bft) 0,00 %
06.09.2014 15:45 22,4 C 70 % 1009,1 hPa 0,0 l/m 4,3 km/h (1 Bft) NO 48 15 min 0,000 mm 2,0 UV-I 367 W/m 16,7 C 22,4 C 4,0 km/h (1 Bft) 0,00 %
06.09.2014 16:00 20,6 C 74 % 1009,3 hPa 0,6 l/m 11,5 km/h (2 Bft) O 101 0 min 0,000 mm 2,0 UV-I 163 W/m 15,8 C 18,9 C 4,0 km/h (1 Bft) 0,00 %
06.09.2014 16:15 20,5 C 76 % 1009,3 hPa 0,0 l/m 5,8 km/h (2 Bft) O 95 0 min 0,000 mm 2,0 UV-I 123 W/m 16,1 C 20,5 C 4,0 km/h (1 Bft) 0,00 %
06.09.2014 16:30 20,4 C 76 % 1009,2 hPa 0,0 l/m 0,7 km/h (0 Bft) NO 54 0 min 0,000 mm 1,0 UV-I 137 W/m 16,0 C 20,4 C 0,0 km/h (0 Bft) 0,00 %
06.09.2014 16:45 20,6 C 73 % 1008,4 hPa 0,0 l/m 2,2 km/h (1 Bft) O-SO 111 0 min 0,000 mm 2,0 UV-I 164 W/m 15,6 C 20,6 C 0,0 km/h (0 Bft) 0,00 %
06.09.2014 17:00 21,1 C 70 % 1009,0 hPa 0,0 l/m 1,4 km/h (1 Bft) O-NO 70 15 min 0,000 mm 1,0 UV-I 575 W/m 15,4 C 21,1 C 4,0 km/h (1 Bft) 0,00 %
06.09.2014 17:15 21,1 C 70 % 1009,1 hPa 0,0 l/m 0,0 km/h (0 Bft) O 79 0 min 0,000 mm 1,0 UV-I 178 W/m 15,4 C 21,1 C 11,9 km/h (2 Bft) 0,00 %
06.09.2014 17:30 21,9 C 69 % 1008,8 hPa 0,0 l/m 0,0 km/h (0 Bft) O-NO 57 0 min 0,000 mm 1,0 UV-I 182 W/m 15,9 C 21,9 C 4,0 km/h (1 Bft) 0,00 %
06.09.2014 17:45 21,4 C 66 % 1008,3 hPa 0,0 l/m 1,8 km/h (1 Bft) O 80 15 min 0,000 mm 1,0 UV-I 201 W/m 14,8 C 21,4 C 4,0 km/h (1 Bft) 0,00 %
06.09.2014 18:00 21,6 C 64 % 1008,2 hPa 0,0 l/m 7,2 km/h (2 Bft) O-NO 72 15 min 0,000 mm 1,0 UV-I 324 W/m 14,5 C 21,3 C 4,0 km/h (1 Bft) 0,00 %
06.09.2014 18:15 21,4 C 64 % 1008,2 hPa 0,0 l/m 0,7 km/h (0 Bft) O-NO 70 15 min 0,000 mm 0,0 UV-I 366 W/m 14,3 C 21,4 C 7,9 km/h (2 Bft) 0,00 %
06.09.2014 18:30 21,3 C 66 % 1009,0 hPa 0,0 l/m 1,4 km/h (1 Bft) NO 54 15 min 0,000 mm 0,0 UV-I 274 W/m 14,7 C 21,3 C 4,0 km/h (1 Bft) 0,00 %
06.09.2014 18:45 20,4 C 71 % 1009,2 hPa 0,0 l/m 4,0 km/h (1 Bft) O 89 15 min 0,000 mm 0,0 UV-I 86 W/m 15,0 C 20,4 C 0,0 km/h (0 Bft) 0,00 %
06.09.2014 19:00 20,1 C 71 % 1009,4 hPa 0,0 l/m 5,4 km/h (1 Bft) O 93 15 min 0,000 mm 0,0 UV-I 90 W/m 14,7 C 20,1 C 0,0 km/h (0 Bft) 0,00 %
06.09.2014 19:15 19,4 C 75 % 1009,5 hPa 0,0 l/m 1,4 km/h (1 Bft) O 79 15 min 0,000 mm 0,0 UV-I 37 W/m 14,8 C 19,4 C 4,0 km/h (1 Bft) 0,00 %
06.09.2014 19:30 18,6 C 79 % 1009,9 hPa 0,0 l/m 0,0 km/h (0 Bft) O-NO 71 0 min 0,000 mm 0,0 UV-I 0 W/m 14,9 C 18,6 C 4,0 km/h (1 Bft) 0,00 %
06.09.2014 19:45 18,5 C 80 % 1009,8 hPa 0,0 l/m 0,0 km/h (0 Bft) O-NO 75 0 min 0,000 mm 0,0 UV-I 0 W/m 15,0 C 18,5 C 4,0 km/h (1 Bft) 0,00 %
06.09.2014 20:00 18,1 C 81 % 1010,1 hPa 0,0 l/m 0,7 km/h (0 Bft) O 86 0 min 0,000 mm 0,0 UV-I 0 W/m 14,8 C 18,1 C 0,0 km/h (0 Bft) 0,00 %
06.09.2014 20:15 18,4 C 77 % 1010,0 hPa 0,0 l/m 1,8 km/h (1 Bft) O 81 0 min 0,000 mm 0,0 UV-I 0 W/m 14,3 C 18,4 C 4,0 km/h (1 Bft) 0,00 %
06.09.2014 20:30 17,9 C 80 % 1010,4 hPa 0,0 l/m 2,2 km/h (1 Bft) O-NO 66 0 min 0,000 mm 0,0 UV-I 0 W/m 14,4 C 17,9 C 4,0 km/h (1 Bft) 0,00 %
06.09.2014 20:45 17,7 C 80 % 1010,4 hPa 0,0 l/m 0,0 km/h (0 Bft) N-NO 32 0 min 0,000 mm 0,0 UV-I 0 W/m 14,2 C 17,7 C 0,0 km/h (0 Bft) 0,00 %
06.09.2014 21:00 17,8 C 79 % 1010,6 hPa 0,0 l/m 1,4 km/h (1 Bft) NO 48 0 min 0,000 mm 0,0 UV-I 0 W/m 14,1 C 17,8 C 4,0 km/h (1 Bft) 0,00 %
06.09.2014 21:15 17,6 C 79 % 1010,8 hPa 0,0 l/m 3,2 km/h (1 Bft) O-NO 68 0 min 0,000 mm 0,0 UV-I 0 W/m 13,9 C 17,6 C 0,0 km/h (0 Bft) 0,00 %
06.09.2014 21:30 17,2 C 81 % 1010,9 hPa 0,0 l/m 0,0 km/h (0 Bft) O-NO 76 0 min 0,000 mm 0,0 UV-I 0 W/m 13,9 C 17,2 C 4,0 km/h (1 Bft) 0,00 %
06.09.2014 21:45 17,0 C 81 % 1011,1 hPa 0,0 l/m 0,4 km/h (0 Bft) O-NO 58 0 min 0,000 mm 0,0 UV-I 0 W/m 13,7 C 17,0 C 4,0 km/h (1 Bft) 0,00 %
06.09.2014 22:00 16,8 C 81 % 1011,1 hPa 0,0 l/m 0,0 km/h (0 Bft) O-NO 76 0 min 0,000 mm 0,0 UV-I 0 W/m 13,5 C 16,8 C 4,0 km/h (1 Bft) 0,00 %
06.09.2014 22:15 16,5 C 82 % 1011,3 hPa 0,0 l/m 1,4 km/h (1 Bft) S 171 0 min 0,000 mm 0,0 UV-I 0 W/m 13,4 C 16,5 C 0,0 km/h (0 Bft) 0,00 %
06.09.2014 22:30 16,4 C 83 % 1011,4 hPa 0,0 l/m 1,4 km/h (1 Bft) O 86 0 min 0,000 mm 0,0 UV-I 0 W/m 13,5 C 16,4 C 0,0 km/h (0 Bft) 0,00 %
06.09.2014 22:45 16,5 C 82 % 1011,4 hPa 0,0 l/m 1,4 km/h (1 Bft) S 183 0 min 0,000 mm 0,0 UV-I 0 W/m 13,4 C 16,5 C 0,0 km/h (0 Bft) 0,00 %
06.09.2014 23:00 16,2 C 85 % 1011,2 hPa 0,0 l/m 0,0 km/h (0 Bft) SO 143 0 min 0,000 mm 0,0 UV-I 0 W/m 13,7 C 16,2 C 0,0 km/h (0 Bft) 0,00 %
06.09.2014 23:15 16,0 C 84 % 1011,5 hPa 0,0 l/m 0,0 km/h (0 Bft) SO 139 0 min 0,000 mm 0,0 UV-I 0 W/m 13,3 C 16,0 C 0,0 km/h (0 Bft) 0,00 %
06.09.2014 23:30 15,7 C 88 % 1011,5 hPa 0,0 l/m 0,0 km/h (0 Bft) SO 136 0 min 0,000 mm 0,0 UV-I 0 W/m 13,7 C 15,7 C 0,0 km/h (0 Bft) 0,00 %
06.09.2014 23:45 15,7 C 90 % 1011,5 hPa 0,0 l/m 0,0 km/h (0 Bft) SO 136 0 min 0,000 mm 0,0 UV-I 0 W/m 14,1 C 15,7 C 0,0 km/h (0 Bft) 0,00 %
_ Min-Zeit 06:00 15:15 18:00 - 00:00 - - - - - - 06:00 06:00 00:00 00:00
Minimum _ 12,4 C 61 % 1008,2 hPa - 0,0 km/h (0 Bft) - - - - - - 11,9 C 12,4 C 0,0 km/h (0 Bft) 0,00 %
_ Max-Zeit 15:30 06:30 09:15 16:00 16:00 - - 08:30 00:00 11:30 15:30 15:30 15:15 12:45 00:00
Maximum _ 23,4 C 99 % 1012,7 hPa 0,6 l/m 11,5 km/h
O (2 Bft)
- - 15 min 0,000 mm 7,0 UV-I 939 W/m 16,9 C 22,4 C 15,8 km/h
O-NO (3 Bft)
0,00 %
Durchschnitt _ 17,1 C 84 % 1011,1 hPa #0,6 l/m 1,5 km/h (1 Bft) O-NO - #5:15 h #0,000 mm 2,8 UV-I 308 W/m 14,2 C 17,0 C 2,5 km/h (1 Bft) 0,00 %